Time,TemperatureF,DewpointF,PressureIn,WindDirection,WindDirectionDegrees,WindSpeedMPH,WindSpeedGustMPH,Humidity,HourlyPrecipIn,Conditions,Clouds,dailyrainin,SolarRadiationWatts/m^2,SoftwareType,DateUTC
2013-01-27 00:21:00,32.0,30.0,-100.00,North,0,0.0,2.0,93,-99.99,,,-99.99,0.000000,,2013-01-27 07:21:00,
2013-01-27 00:31:00,33.0,31.0,-100.00,West,264,0.0,1.0,93,-99.99,,,-99.99,0.000000,,2013-01-27 07:31:00,
2013-01-27 01:01:00,32.0,30.0,-100.00,North,0,0.0,1.0,93,-99.99,,,-99.99,0.000000,,2013-01-27 08:01:00,
2013-01-27 01:11:00,32.0,30.0,-100.00,North,0,0.0,1.0,93,-99.99,,,-99.99,0.000000,,2013-01-27 08:11:00,
2013-01-27 01:31:00,32.0,31.0,-100.00,ENE,57,2.0,3.0,93,-99.99,,,-99.99,0.000000,,2013-01-27 08:31:00,
2013-01-27 02:02:00,32.0,31.0,-100.00,ENE,58,1.0,3.0,93,-99.99,,,-99.99,0.000000,,2013-01-27 09:02:00,
2013-01-27 02:31:00,32.0,30.0,-100.00,ENE,75,5.0,7.0,94,-99.99,,,-99.99,0.020000,,2013-01-27 09:31:00,
2013-01-27 02:41:00,32.0,30.0,-100.00,ENE,69,5.0,5.0,94,-99.99,,,-99.99,0.040000,,2013-01-27 09:41:00,
2013-01-27 03:01:00,32.0,30.0,-100.00,ENE,67,2.0,3.0,94,-99.99,,,-99.99,0.000000,,2013-01-27 10:01:00,
2013-01-27 03:11:00,32.0,30.0,-100.00,ENE,67,2.0,3.0,94,-99.99,,,-99.99,0.000000,,2013-01-27 10:11:00,
2013-01-27 03:21:00,32.0,30.0,-100.00,ENE,63,4.0,5.0,94,-99.99,,,-99.99,0.000000,,2013-01-27 10:21:00,
2013-01-27 03:31:00,31.0,30.0,-100.00,ENE,68,4.0,4.0,94,-99.99,,,-99.99,0.020000,,2013-01-27 10:31:00,
2013-01-27 04:01:00,31.0,30.0,-100.00,ENE,66,8.0,8.0,95,-99.99,,,-99.99,0.000000,,2013-01-27 11:01:00,
2013-01-27 04:11:00,31.0,30.0,-100.00,ENE,66,8.0,8.0,95,-99.99,,,-99.99,0.000000,,2013-01-27 11:11:00,
2013-01-27 04:21:00,31.0,30.0,-100.00,ENE,68,7.0,8.0,95,-99.99,,,-99.99,0.000000,,2013-01-27 11:21:00,
2013-01-27 04:42:00,31.0,30.0,-100.00,ENE,63,7.0,8.0,95,-99.99,,,-99.99,0.000000,,2013-01-27 11:42:00,
2013-01-27 05:02:00,30.0,29.0,-100.00,ENE,68,5.0,7.0,95,-99.99,,,-99.99,0.000000,,2013-01-27 12:02:00,
2013-01-27 05:11:00,30.0,29.0,-100.00,ENE,68,5.0,7.0,95,-99.99,,,-99.99,0.000000,,2013-01-27 12:11:00,
2013-01-27 05:41:00,30.0,29.0,-100.00,NE,54,9.0,10.0,95,-99.99,,,-99.99,0.010000,,2013-01-27 12:41:00,
2013-01-27 06:01:00,30.0,29.0,-100.00,ENE,66,7.0,7.0,95,-99.99,,,-99.99,0.000000,,2013-01-27 13:01:00,
2013-01-27 06:31:00,29.0,28.0,-100.00,ENE,67,8.0,9.0,96,-99.99,,,-99.99,0.010000,,2013-01-27 13:31:00,
2013-01-27 06:41:00,29.0,28.0,-100.00,ENE,68,6.0,9.0,96,-99.99,,,-99.99,0.000000,,2013-01-27 13:41:00,
2013-01-27 06:51:00,29.0,28.0,-100.00,ENE,69,8.0,9.0,96,-99.99,,,-99.99,0.010000,,2013-01-27 13:51:00,
2013-01-27 07:01:00,29.0,28.0,-100.00,ENE,72,5.0,8.0,96,-99.99,,,-99.99,0.050000,,2013-01-27 14:01:00,
2013-01-27 07:11:00,29.0,28.0,-100.00,ENE,72,2.0,6.0,96,-99.99,,,-99.99,0.010000,,2013-01-27 14:11:00,
2013-01-27 07:21:00,29.0,28.0,-100.00,ENE,60,6.0,7.0,96,-99.99,,,-99.99,0.010000,,2013-01-27 14:21:00,
2013-01-27 07:31:00,29.0,28.0,-100.00,ENE,60,6.0,7.0,96,-99.99,,,-99.99,0.010000,,2013-01-27 14:31:00,
2013-01-27 07:52:00,27.0,26.0,-100.00,East,84,3.0,6.0,96,-99.99,,,-99.99,0.280000,,2013-01-27 14:52:00,
2013-01-27 08:11:00,27.0,26.0,-100.00,NW,316,1.0,3.0,95,-99.99,,,-99.99,1.900000,,2013-01-27 15:11:00,
2013-01-27 08:21:00,27.0,26.0,-100.00,NW,316,1.0,3.0,95,-99.99,,,-99.99,1.900000,,2013-01-27 15:21:00,
2013-01-27 08:52:00,29.0,28.0,-100.00,NW,321,3.0,4.0,95,-99.99,,,-99.99,22.000000,,2013-01-27 15:52:00,
2013-01-27 09:01:00,29.0,28.0,-100.00,NW,321,3.0,4.0,95,-99.99,,,-99.99,22.000000,,2013-01-27 16:01:00,
2013-01-27 09:21:00,30.0,29.0,-100.00,North,0,0.0,3.0,95,-99.99,,,-99.99,42.150002,,2013-01-27 16:21:00,
2013-01-27 09:32:00,30.0,29.0,-100.00,North,0,0.0,0.0,95,-99.99,,,-99.99,45.520000,,2013-01-27 16:32:00,
2013-01-27 10:21:00,30.0,29.0,-100.00,ENE,65,5.0,8.0,95,-99.99,,,-99.99,66.150002,,2013-01-27 17:21:00,
2013-01-27 10:32:00,31.0,30.0,-100.00,ENE,70,9.0,10.0,95,-99.99,,,-99.99,126.300003,,2013-01-27 17:32:00,
2013-01-27 11:21:00,32.0,30.0,-100.00,NE,46,7.0,9.0,94,-99.99,,,-99.99,40.799999,,2013-01-27 18:21:00,
2013-01-27 11:31:00,31.0,30.0,-100.00,East,82,3.0,6.0,94,-99.99,,,-99.99,17.230000,,2013-01-27 18:31:00,
2013-01-27 11:41:00,31.0,30.0,-100.00,East,82,3.0,6.0,94,-99.99,,,-99.99,17.230000,,2013-01-27 18:41:00,
2013-01-27 11:51:00,32.0,31.0,-100.00,North,0,0.0,3.0,94,-99.99,,,-99.99,55.599998,,2013-01-27 18:51:00,
2013-01-27 12:11:00,32.0,31.0,-100.00,NE,54,3.0,5.0,94,-99.99,,,-99.99,57.119999,,2013-01-27 19:11:00,
2013-01-27 12:21:00,32.0,31.0,-100.00,NE,54,3.0,5.0,94,-99.99,,,-99.99,57.119999,,2013-01-27 19:21:00,
2013-01-27 12:32:00,32.0,30.0,-100.00,NE,38,3.0,5.0,94,-99.99,,,-99.99,55.369999,,2013-01-27 19:32:00,
2013-01-27 12:41:00,32.0,30.0,-100.00,NE,38,3.0,5.0,94,-99.99,,,-99.99,55.369999,,2013-01-27 19:41:00,
2013-01-27 12:51:00,32.0,31.0,-100.00,SE,130,4.0,6.0,94,-99.99,,,-99.99,51.240002,,2013-01-27 19:51:00,
2013-01-27 13:11:00,33.0,30.0,-100.00,SSW,196,6.0,19.0,88,-99.99,,,-99.99,76.360001,,2013-01-27 20:11:00,
2013-01-27 13:22:00,33.0,30.0,-100.00,SSW,196,6.0,19.0,88,-99.99,,,-99.99,76.360001,,2013-01-27 20:22:00,
2013-01-27 13:41:00,35.0,27.0,-100.00,SW,224,20.0,32.0,73,-99.99,,,-99.99,120.699997,,2013-01-27 20:41:00,
2013-01-27 13:52:00,35.0,25.0,-100.00,SW,222,27.0,38.0,67,-99.99,,,-99.99,131.800003,,2013-01-27 20:52:00,
2013-01-27 14:11:00,36.0,24.0,-100.00,SW,225,26.0,38.0,60,-99.99,,,-99.99,192.500000,,2013-01-27 21:11:00,
2013-01-27 14:22:00,37.0,23.0,-100.00,SW,228,33.0,46.0,57,-99.99,,,-99.99,338.399994,,2013-01-27 21:22:00,
2013-01-27 14:52:00,35.0,24.0,-100.00,SW,234,21.0,36.0,64,-99.99,,,-99.99,98.900002,,2013-01-27 21:52:00,
2013-01-27 15:11:00,30.0,27.0,-100.00,WSW,251,21.0,32.0,88,-99.99,,,-99.99,120.199997,,2013-01-27 22:11:00,
2013-01-27 15:51:00,26.0,25.0,-100.00,WSW,249,18.0,27.0,93,-99.99,,,-99.99,15.660000,,2013-01-27 22:51:00,
2013-01-27 16:11:00,25.0,24.0,-100.00,SW,231,12.0,15.0,94,-99.99,,,-99.99,16.030001,,2013-01-27 23:11:00,
2013-01-27 16:31:00,25.0,24.0,-100.00,WSW,244,10.0,16.0,94,-99.99,,,-99.99,28.900000,,2013-01-27 23:31:00,
2013-01-27 16:52:00,23.0,22.0,-100.00,WSW,258,21.0,27.0,94,-99.99,,,-99.99,25.930000,,2013-01-27 23:52:00,
2013-01-27 17:11:00,23.0,21.0,-100.00,WSW,237,18.0,28.0,93,-99.99,,,-99.99,4.880000,,2013-01-28 00:11:00,
2013-01-27 17:32:00,23.0,21.0,-100.00,WSW,242,17.0,25.0,94,-99.99,,,-99.99,3.050000,,2013-01-28 00:32:00,
2013-01-27 17:51:00,22.0,21.0,-100.00,SW,233,11.0,16.0,94,-99.99,,,-99.99,1.750000,,2013-01-28 00:51:00,
2013-01-27 18:11:00,20.0,19.0,-100.00,West,264,13.0,21.0,92,-99.99,,,-99.99,0.450000,,2013-01-28 01:11:00,
2013-01-27 18:32:00,20.0,19.0,-100.00,WSW,252,18.0,22.0,93,-99.99,,,-99.99,0.000000,,2013-01-28 01:32:00,
2013-01-27 18:51:00,21.0,19.0,-100.00,SW,236,14.0,19.0,93,-99.99,,,-99.99,0.000000,,2013-01-28 01:51:00,
2013-01-27 19:11:00,21.0,19.0,-100.00,WSW,255,13.0,14.0,93,-99.99,,,-99.99,0.000000,,2013-01-28 02:11:00,
2013-01-27 19:21:00,21.0,20.0,-100.00,WSW,252,13.0,16.0,93,-99.99,,,-99.99,0.000000,,2013-01-28 02:21:00,
2013-01-27 19:41:00,21.0,19.0,-100.00,West,267,10.0,15.0,93,-99.99,,,-99.99,0.000000,,2013-01-28 02:41:00,
2013-01-27 20:01:00,20.0,18.0,-100.00,WSW,254,11.0,15.0,93,-99.99,,,-99.99,0.000000,,2013-01-28 03:01:00,
2013-01-27 20:21:00,19.0,18.0,-100.00,SW,221,12.0,15.0,92,-99.99,,,-99.99,0.000000,,2013-01-28 03:21:00,
2013-01-27 21:01:00,19.0,17.0,-100.00,WSW,243,9.0,13.0,92,-99.99,,,-99.99,0.000000,,2013-01-28 04:01:00,
2013-01-27 21:21:00,20.0,18.0,-100.00,WSW,253,11.0,13.0,92,-99.99,,,-99.99,0.000000,,2013-01-28 04:21:00,
2013-01-27 21:41:00,19.0,18.0,-100.00,WSW,250,10.0,14.0,92,-99.99,,,-99.99,0.000000,,2013-01-28 04:41:00,
2013-01-27 22:03:00,19.0,17.0,-100.00,SW,232,10.0,13.0,92,-99.99,,,-99.99,0.000000,,2013-01-28 05:03:00,
2013-01-27 22:11:00,19.0,17.0,-100.00,SW,232,10.0,13.0,92,-99.99,,,-99.99,0.000000,,2013-01-28 05:11:00,
2013-01-27 22:41:00,19.0,17.0,-100.00,WSW,244,10.0,13.0,92,-99.99,,,-99.99,0.000000,,2013-01-28 05:41:00,
2013-01-27 22:52:00,19.0,17.0,-100.00,WSW,244,10.0,13.0,92,-99.99,,,-99.99,0.000000,,2013-01-28 05:52:00,
2013-01-27 23:01:00,19.0,17.0,-100.00,West,259,11.0,12.0,92,-99.99,,,-99.99,0.000000,,2013-01-28 06:01:00,
2013-01-27 23:11:00,19.0,17.0,-100.00,West,264,8.0,12.0,92,-99.99,,,-99.99,0.000000,,2013-01-28 06:11:00,
2013-01-27 23:21:00,19.0,17.0,-100.00,West,264,8.0,12.0,92,-99.99,,,-99.99,0.000000,,2013-01-28 06:21:00,
2013-01-27 23:31:00,18.0,16.0,-100.00,West,266,10.0,13.0,92,-99.99,,,-99.99,0.000000,,2013-01-28 06:31:00,
2013-01-27 23:52:00,18.0,16.0,-100.00,SW,235,11.0,14.0,92,-99.99,,,-99.99,0.000000,,2013-01-28 06:52:00,